User: anonymous   Login
Location: Unspecified
(0.0000°N, 0.0000°E)
Time: 06:22:13
(UTC+00:00)
Language:

USA 187 - Orbit

View from above orbital plane
View from above orbital plane
View from above satellite
View from above satellite

Ground track
Ground track

The orbit data is extracted from the following two-line orbital elements,

1 29240U 06024A   18228.48949534 0.00000000  00000-0  00000-0 0    09
2 29240   1.5708  78.8595 0013703 195.8537 164.1091  0.98607392    00
Epoch (UTC): 16 August 2018 11:44:52
Eccentricity: 0.0013703
inclination: 1.5708°
perigee height: 36201 km
apogee height: 36318 km
right ascension of ascending node: 78.8595°
argument of perigee: 195.8537°
revolutions per day: 0.98607392
mean anomaly at epoch: 164.1091°
orbit number at epoch: 0

The dashed part of the orbit path shows where the satellite is in the earth's shadow,  

DLR